Regional Weather Roundup
Issued by NWS

Home | Current Version | Previous Version | Text Only | Print | Product List | Glossary On
Versions: 1 2 3 4 5 6 7 8 9 10 11 12 13 14 15 16 17 18 19 20 21 22 23 24 25 26 27
000
ASUS45 KBOU 260707
RWRCO

WEATHER ROUNDUP FOR COLORADO
NATIONAL WEATHER SERVICE DENVER/BOULDER CO
100 AM MDT FRI MAY 26 2017

NOTE: "FAIR" INDICATES FEW OR NO CLOUDS BELOW 12000 FEET WITH NO
SIGNIFICANT WEATHER AND/OR OBSTRUCTIONS TO VISIBILITY.

COZ001>005-013-030-031-260800-
...NORTHWEST COLORADO...

CITY           SKY/WX    TMP DP  RH WIND       PRES   REMARKS
CRAIG          FAIR      45  40  82 E6        29.93R
HAYDEN         FAIR      41  36  81 SE7       29.95R
MEEKER         FAIR      42  39  89 CALM      29.94R
RABBIT EARS PA FAIR      32  32 100 S9        30.09R WCI  24
STEAMBOAT SPGS FAIR      40  38  92 CALM      29.97R
WALDEN           N/A     34  32  93 SE6       30.02R WCI  29
$$

COZ006>008-011-260800-
...WEST CENTRAL VALLEYS...

CITY           SKY/WX    TMP DP  RH WIND       PRES   REMARKS
GRAND JUNCTION MOCLDY    62  41  46 S7        29.85F
MONTROSE       MOCLDY    56  39  53 NE8       29.96R
EAGLE          FAIR      48  42  80 S5        29.99R
RIFLE          FAIR      54  44  69 W7        29.92R
DELTA          RAIN      57  47  68 N14       29.95R
NUCLA          FAIR      55  37  50 E9        29.95R
$$

COZ017>023-064>068-260800-
...SOUTHWEST COLORADO...

CITY           SKY/WX    TMP DP  RH WIND       PRES   REMARKS
DURANGO        FAIR      52  30  43 VRB6      29.95R
CORTEZ         FAIR      58  35  42 E3        29.92R
PAGOSA SPRINGS MOCLDY    53  30  41 CALM      30.01S
TELLURIDE      LGT RAIN  44  37  78 CALM      30.14R
WOLF CREEK PAS CLOUDY    36  23  60 SW9       30.25S
$$

COZ009-010-012-014-032>034-037-058>063-260800-
...CENTRAL COLORADO...

CITY           SKY/WX    TMP DP  RH WIND       PRES   REMARKS
ASPEN          CLOUDY    46  41  82 SE7       30.02S
BUENA VISTA    LGT RAIN  46  38  76 W5        30.04S
COPPER MTN     FOG       34  30  86 S8G21     30.18R VSB 1   WCI  27
BERTHOUD PASS  CLOUDY    27  16  63 MISG      30.15S
COTTONWOOD PAS LGT RAIN  41  36  81 SW10      30.11S
GUNNISON       FAIR      44  41  89 E6        30.06R
KREMMLING      FAIR      43  39  87 SE5       30.02R
LEADVILLE      CLOUDY    37  33  85 NE5       30.09R
MONARCH PASS   FOG       32  30  93 W23       30.28F VSB 1/4 WCI  19
SALIDA         MOCLDY    49  40  70 W12       30.09F
SUNLIGHT       CLOUDY    34  32  93 SW14G24   30.14S WCI  24
WILKERSON PASS CLOUDY    34  30  86 SW10G23   30.17R WCI  26
$$

COZ069>075-260800-
...SAN LUIS VALLEY/SANGRE DE CRISTO MOUNTAINS...

CITY           SKY/WX    TMP DP  RH WIND       PRES   REMARKS
ALAMOSA        CLOUDY    55  30  38 NW13      30.00R
DEL NORTE      FAIR      51  31  45 W12       30.02F
LA VETA PASS   CLOUDY    39  34  81 MISG      30.24S
SAGUACHE       LGT RAIN  45  41  87 NW17      30.08R
$$

COZ035-036-038>040-260800-
...NORTHERN COLORADO FRONT RANGE...

CITY           SKY/WX    TMP DP  RH WIND       PRES   REMARKS
DENVER INTL AP RAIN      48  46  93 NW17G29   29.97R FOG
DMNS CITY PARK   N/A     46  46  99 E12G24    29.93F
AURORA         TSTM      47  45  94 N17       29.98R FOG
FRONT RANGE AP TSTM      50  46  87 NW23G31   29.97R
ERIE MUNI ARPT CLOUDY    49  45  86 E6        29.94F
BOULDER MUN AP FAIR      46  45  93 CALM      29.93S
CENTENNIAL     LGT RAIN  49  47  93 N21       29.98R
BROOMFIELD     CLOUDY    46  45  93 NE9       29.95F
FORT COLLINS   FAIR      48  46  93 S5        29.91F
LONGMONT       FAIR      50  46  86 CALM      29.94F
$$

COZ041-046-047-076>085-087-088-260800-
...PIKES PEAK/PALMER DIVIDE AND SOUTHERN FOOTHILLS...

CITY           SKY/WX    TMP DP  RH WIND       PRES   REMARKS
COLO. SPRINGS  CLOUDY    54  42  64 CALM      29.96R
A. F. ACADEMY  LGT RAIN  50  43  76 NW7       29.96R
SCHRIEVER AFB  MOCLDY    51  38  60 N8G17     29.95R
CHEYENNE MTN   CLOUDY    51  41  68 S9        29.93R
ELLICOTT       MOCLDY   N/A N/A N/A N8        29.93R THUNDER
FALCON         TSTM      47  38  73 N3        29.97S
FORT CARSON    MOCLDY    53  44  70 S7        29.94R
LIMON          MOCLDY    47  46  97 NW8       29.90F
MONUMENT HILL  CLOUDY    43  41  93 CALM      30.00S
CANON CITY     NOT AVBL
WALSENBURG     FAIR      52  45  76 N8        29.96S
TRINIDAD       FAIR      52  42  69 NW6       29.92R
$$

COZ042>045-048>051-090-091-260800-
...NORTHEAST COLORADO...

CITY           SKY/WX    TMP DP  RH WIND       PRES   REMARKS
GREELEY ARPT   LGT RAIN  51  46  83 SE8       29.88F
AKRON          LGT RAIN  51  47  86 W8G28     29.89R
BURLINGTON     MOCLDY    57  50  77 NE5       29.80F
WRAY           FAIR      54  50  87 W10       29.80R
YUMA           PTSUNNY   50  46  87 W15       29.87R
STERLING       MOCLDY    50  48  93 CALM      29.84R
HOLYOKE        NOT AVBL
FORT MORGAN    CLOUDY    51  47  87 W9        29.90R
$$

COZ086-089-092>099-260800-
...SOUTHEAST COLORADO...

CITY           SKY/WX    TMP DP  RH WIND       PRES   REMARKS
PUEBLO         FAIR      54  45  71 NW7       29.90R
LA JUNTA       FAIR      55  46  71 N6        29.82F
LAMAR          FAIR      53  46  77 NW5       29.79S
SPRINGFIELD      N/A     52  47  83 N13       29.81R
$$




USA.gov is the U.S. government's official web portal to all federal, state and local government web resources and services.